Weather History for Roxboro, NC

Change the Weather History Date:

Sunday, November 13, 2011

  Actual Average Record
Temperature  
Mean Temperature 52 °F -  
Max Temperature 64 °F 60 °F 78 °F (1989)
Min Temperature 41 °F 35 °F 23 °F (2013)
Degree Days  
Heating Degree Days 12    
Growing Degree Days 2 (Base 50)    
Moisture  
Dew Point 27 °F    
Average Humidity 37    
Maximum Humidity 57    
Minimum Humidity 15    
Precipitation  
Precipitation 0.00 in - - ()
Sea Level Pressure  
Sea Level Pressure 30.20 in    
Wind  
Wind Speed 8 mph (SW)    
Max Wind Speed 20 mph    
Max Gust Speed 26 mph    
Visibility 10 miles    
Events      
Averages and records for this station are not official NWS values.
T = Trace of Precipitation, MM = Missing Value Source: NWS Daily Summary

Daily Weather History Graph

Daily Weather History Graph

Search for Another Location

Airport:

Trip Planner

Search our weather history database for the weather conditions in past years. The results will help you decide how hot, cold, wet, or windy it might be!

Date:

Astronomy

Nov. 13, 2011 Rise Set
Actual Time 6:50 AM EST 5:09 PM EST
Civil Twilight 6:23 AM EST 5:36 PM EST
Nautical Twilight 5:52 AM EST 6:07 PM EST
Astronomical Twilight 5:22 AM EST 6:37 PM EST
Moon 7:19 PM EST (11/13) 9:18 AM EST (11/13)
Length of Visible Light 11h 13m
Length of Day
10h 18m
Waning Gibbous, 93% of the Moon is Illuminated
Nov 13
Waning Gibbous
Nov 18
Last Quarter
Nov 25
New
Dec 2
First Quarter
Dec 10
Full

Hourly Weather History & Observations

Time (EST) Temp. Windchill Dew Point Humidity Pressure Visibility Wind Dir Wind Speed Gust Speed Precip Events Conditions
12:15 AM 50.0 °F - 26.6 °F 40% 30.23 in 10.0 mi SW 6.9 mph - N/A   Unknown
12:35 AM 50.0 °F - 24.8 °F 37% 30.23 in 10.0 mi SW 9.2 mph - N/A   Unknown
12:55 AM 50.0 °F - 26.6 °F 40% 30.24 in 10.0 mi SW 8.1 mph - N/A   Unknown
1:15 AM 50.0 °F - 24.8 °F 37% 30.24 in 10.0 mi SW 8.1 mph - N/A   Unknown
1:35 AM 50.0 °F - 24.8 °F 37% 30.23 in 10.0 mi SW 10.4 mph - N/A   Unknown
1:55 AM 50.0 °F - 24.8 °F 37% 30.24 in 10.0 mi SW 6.9 mph - N/A   Unknown
2:15 AM 48.2 °F - 26.6 °F 43% 30.23 in 10.0 mi SW 6.9 mph - N/A   Unknown
2:35 AM 50.0 °F - 24.8 °F 37% 30.22 in 10.0 mi SSW 5.8 mph - N/A   Unknown
2:55 AM 48.2 °F - 24.8 °F 40% 30.22 in 10.0 mi SSW 5.8 mph - N/A   Unknown
3:15 AM 48.2 °F - 26.6 °F 43% 30.22 in 10.0 mi SSW 3.5 mph - N/A   Unknown
3:35 AM 48.2 °F - 26.6 °F 43% 30.22 in 10.0 mi SSW 4.6 mph - N/A   Unknown
3:55 AM 46.4 °F 45.2 °F 26.6 °F 46% 30.22 in 10.0 mi SSW 3.5 mph - N/A   Unknown
4:15 AM 46.4 °F 45.2 °F 26.6 °F 46% 30.21 in 10.0 mi SSW 3.5 mph - N/A   Unknown
4:35 AM 46.4 °F 44.3 °F 26.6 °F 46% 30.21 in 10.0 mi South 4.6 mph - N/A   Unknown
4:55 AM 46.4 °F - 26.6 °F 46% 30.22 in 10.0 mi Calm Calm - N/A   Unknown
5:15 AM 44.6 °F 42.2 °F 28.4 °F 53% 30.22 in 10.0 mi SSW 4.6 mph - N/A   Unknown
5:35 AM 44.6 °F 43.1 °F 26.6 °F 49% 30.23 in 10.0 mi South 3.5 mph - N/A   Unknown
5:55 AM 42.8 °F 40.1 °F 26.6 °F 53% 30.23 in 10.0 mi SSW 4.6 mph - N/A   Unknown
6:15 AM 41.0 °F 38.0 °F 26.6 °F 57% 30.23 in 10.0 mi South 4.6 mph - N/A   Unknown
6:35 AM 41.0 °F 38.0 °F 26.6 °F 57% 30.23 in 10.0 mi SSW 4.6 mph - N/A   Unknown
6:55 AM 41.0 °F 38.0 °F 26.6 °F 57% 30.23 in 10.0 mi SW 4.6 mph - N/A   Unknown
7:15 AM 41.0 °F 36.4 °F 26.6 °F 57% 30.23 in 10.0 mi SW 6.9 mph - N/A   Unknown
7:35 AM 44.6 °F 42.2 °F 26.6 °F 49% 30.23 in 10.0 mi SSW 4.6 mph - N/A   Unknown
7:55 AM 46.4 °F 44.3 °F 26.6 °F 46% 30.24 in 10.0 mi SW 4.6 mph - N/A   Unknown
8:15 AM 48.2 °F - 26.6 °F 43% 30.25 in 10.0 mi SSW 6.9 mph - N/A   Unknown
8:35 AM 51.8 °F - 26.6 °F 38% 30.25 in 10.0 mi SSW 6.9 mph - N/A   Unknown
8:55 AM 53.6 °F - 26.6 °F 35% 30.25 in 10.0 mi SSW 6.9 mph - N/A   Unknown
9:15 AM 55.4 °F - 24.8 °F 31% 30.24 in 10.0 mi SSW 9.2 mph - N/A   Unknown
9:35 AM 57.2 °F - 21.2 °F 25% 30.24 in 10.0 mi SSW 11.5 mph - N/A   Unknown
9:55 AM 59.0 °F - 21.2 °F 23% 30.24 in 10.0 mi SW 9.2 mph - N/A   Unknown
10:15 AM 60.8 °F - 21.2 °F 22% 30.24 in 10.0 mi SSW 12.7 mph - N/A   Unknown
10:35 AM 62.6 °F - 19.4 °F 19% 30.23 in 10.0 mi SW 13.8 mph 19.6 mph N/A   Unknown
10:55 AM 62.6 °F - 19.4 °F 19% 30.23 in 10.0 mi SSW 15.0 mph 21.9 mph N/A   Unknown
11:15 AM 64.4 °F - 17.6 °F 16% 30.22 in 10.0 mi WSW 18.4 mph 26.5 mph N/A   Unknown
11:35 AM 64.4 °F - 15.8 °F 15% 30.21 in 10.0 mi SSW 17.3 mph - N/A   Unknown
11:55 AM 64.4 °F - 15.8 °F 15% 30.21 in 10.0 mi SW 12.7 mph 18.4 mph N/A   Unknown
12:15 PM 64.4 °F - 17.6 °F 16% 30.20 in 10.0 mi SW 18.4 mph 24.2 mph N/A   Unknown
12:35 PM 64.4 °F - 19.4 °F 18% 30.20 in 10.0 mi SW 15.0 mph 20.7 mph N/A   Unknown
12:55 PM 62.6 °F - 19.4 °F 19% 30.19 in 10.0 mi SW 19.6 mph 24.2 mph N/A   Unknown
1:15 PM 64.4 °F - 21.2 °F 19% 30.18 in 10.0 mi SW 10.4 mph 23.0 mph N/A   Unknown
1:35 PM 62.6 °F - 23.0 °F 22% 30.17 in 10.0 mi SW 11.5 mph 18.4 mph N/A   Unknown
1:55 PM 64.4 °F - 23.0 °F 21% 30.16 in 10.0 mi SSW 8.1 mph - N/A   Unknown
2:15 PM 62.6 °F - 24.8 °F 24% 30.15 in 10.0 mi SSW 11.5 mph - N/A   Unknown
2:35 PM 62.6 °F - 26.6 °F 26% 30.14 in 10.0 mi SSW 11.5 mph 18.4 mph N/A   Unknown
2:55 PM 64.4 °F - 28.4 °F 26% 30.14 in 10.0 mi SW 11.5 mph - N/A   Unknown
3:15 PM 62.6 °F - 28.4 °F 27% 30.13 in 10.0 mi SSW 10.4 mph 20.7 mph N/A   Unknown
3:35 PM 62.6 °F - 30.2 °F 30% 30.14 in 10.0 mi SSW 11.5 mph 21.9 mph N/A   Unknown
3:55 PM 62.6 °F - 33.8 °F 34% 30.14 in 10.0 mi SW 10.4 mph - N/A   Unknown
4:15 PM 62.6 °F - 33.8 °F 34% 30.13 in 10.0 mi SSW 9.2 mph - N/A   Unknown
4:35 PM 62.6 °F - 35.6 °F 37% 30.13 in 10.0 mi SSW 10.4 mph 16.1 mph N/A   Unknown
4:55 PM 60.8 °F - 35.6 °F 39% 30.12 in 10.0 mi SSW 11.5 mph - N/A   Unknown
5:15 PM 60.8 °F - 37.4 °F 42% 30.12 in 10.0 mi SSW 11.5 mph - N/A   Unknown
5:35 PM 60.8 °F - 39.2 °F 45% 30.13 in 10.0 mi SSW 6.9 mph - N/A   Unknown
5:55 PM 60.8 °F - 39.2 °F 45% 30.13 in 10.0 mi SSW 6.9 mph - N/A   Unknown
6:15 PM 59.0 °F - 39.2 °F 48% 30.15 in 10.0 mi SW 5.8 mph - N/A   Unknown
6:35 PM 57.2 °F - 39.2 °F 51% 30.17 in 10.0 mi WSW 3.5 mph - N/A   Unknown
6:55 PM 57.2 °F - 41.0 °F 55% 30.16 in 10.0 mi SSW 8.1 mph - N/A   Unknown
7:15 PM 57.2 °F - 41.0 °F 55% 30.16 in 10.0 mi SSW 4.6 mph - N/A   Unknown
7:35 PM 55.4 °F - 41.0 °F 58% 30.16 in 10.0 mi SW 3.5 mph - N/A   Unknown
7:55 PM 53.6 °F - 41.0 °F 62% 30.15 in 10.0 mi SSW 5.8 mph - N/A   Unknown
8:15 PM 53.6 °F - 41.0 °F 62% 30.16 in 10.0 mi Calm Calm - N/A   Unknown
8:35 PM 53.6 °F - 41.0 °F 62% 30.16 in 10.0 mi Calm Calm - N/A   Unknown
8:55 PM 51.8 °F - 41.0 °F 67% 30.16 in 10.0 mi Calm Calm - N/A   Unknown
9:15 PM 46.4 °F - 39.2 °F 76% 30.16 in 10.0 mi Calm Calm - N/A   Unknown
9:35 PM 46.4 °F - 41.0 °F 81% 30.15 in 10.0 mi Calm Calm - N/A   Unknown
9:55 PM 48.2 °F - 41.0 °F 76% 30.15 in 10.0 mi Calm Calm - N/A   Unknown
10:15 PM 50.0 °F - 42.8 °F 76% 30.13 in 10.0 mi Calm Calm - N/A   Unknown
10:35 PM 53.6 °F - 42.8 °F 67% 30.13 in 10.0 mi SSW 4.6 mph - N/A   Unknown
10:55 PM 55.4 °F - 44.6 °F 67% 30.12 in 10.0 mi SSW 5.8 mph - N/A   Unknown
11:15 PM 55.4 °F - 44.6 °F 67% 30.12 in 10.0 mi SSW 4.6 mph - N/A   Unknown
11:35 PM 55.4 °F - 44.6 °F 67% 30.12 in 10.0 mi SSW 4.6 mph - N/A   Unknown
11:55 PM 55.4 °F - 44.6 °F 67% 30.11 in 10.0 mi South 4.6 mph - N/A   Unknown